Regional Weather Roundup
Issued by NWS

Home | Current Version | Previous Version | Graphics & Text | Print | Product List | Glossary On
Versions: 1 2 3 4 5 6 7 8 9 10 11 12 13 14 15 16 17 18 19 20 21 22 23 24 25 26 27 28 29 30 31 32 33 34 35 36 37 38 39 40 41 42 43 44 45 46 47 48 49 50
000
ASUS43 KMPX 211610
RWRMN
WEATHER ROUNDUP FOR MINNESOTA
NATIONAL WEATHER SERVICE TWIN CITIES/CHANHASSEN MN
1000 AM CST SUN DEC 21 2014


NOTE: "FAIR" INDICATES FEW OR NO CLOUDS BELOW 12,000 FEET WITH NO
SIGNIFICANT WEATHER AND/OR OBSTRUCTIONS TO VISIBILITY. N/A MEANS
CURRENT SKY AND/OR WEATHER CONDITIONS ARE NOT AVAILABLE.

MNZ060>063-068>070-211700-
   Twin Cities Metro

CITY           SKY/WX    TMP DP  RH WIND       PRES   REMARKS
TWIN CITIES    CLOUDY    34  32  92 SE13      29.87S FOG     WCI  25
ST PAUL        CLOUDY    34  33  96 SE13      29.89S FOG     WCI  25
CRYSTAL        LGT SNOW  35  33  92 SE10      29.85S FOG     WCI  27
BLAINE         LGT SNOW  36  36 100 SE9       29.86S
LAKEVILLE      LGT RAIN  32  32 100 S8        29.86F WCI  25
EDEN PRAIRIE   CLOUDY    35  33  92 S12       29.85S FOG     WCI  27
SOUTH ST PAUL  DRIZZLE   34  33  96 SE7       29.88F WCI  28
LAKE ELMO      MIX PCPN  34  34 100 SE9G17    29.89F WCI  26
$$
MNZ001>005-007-008-013>017-022>024-027-028-211700-
   Northwest Minnesota

CITY           SKY/WX    TMP DP  RH WIND       PRES   REMARKS
BEMIDJI        CLOUDY    29  28  96 S13       29.74F FOG     WCI  19
HALLOCK        CLOUDY    30  30 100 CALM      29.67S FOG
ROSEAU         LGT SNOW  30  27  86 S10       29.71R VSB 3/4 WCI  21
WARROAD        CLOUDY    30  27  86 SE6       29.72S FOG     WCI  24
THIEF RVR FALL CLOUDY    30  28  93 S16       29.71S WCI  19
CROOKSTON      CLOUDY    30  28  93 S22       29.72S FOG     WCI  17
FOSSTON        CLOUDY    28  27  93 S13       29.72S FOG     WCI  18
DETROIT LAKES  CLOUDY    30  30 100 S15       29.73F FOG     WCI  19
MOORHEAD       CLOUDY    30  30 100 S16       29.73F FOG     WCI  19
PARK RAPIDS    CLOUDY    30  29  96 S9        29.76S FOG     WCI  22
MAHNOMEN       CLOUDY    30  29  96 S12G20    29.72F FOG     WCI  20
$$
MNZ006-009>011-018-025>026-211700-
   North Central Minnesota

CITY           SKY/WX    TMP DP  RH WIND       PRES   REMARKS
BAUDETTE       SNOW      30  28  92 S8        29.73S VSB 1/4 WCI  22
FLAG ISLAND    CLOUDY    28  27  93 SE17      29.71F FOG     WCI  16
INTL FALLS     CLOUDY    29  27  92 S3        29.79S FOG
WASKISH        CLOUDY    30  28  93 CALM      29.75S FOG
BIG FORK       MIX PCPN  30  28  93 S13G21    29.78F WCI  20
LONGVILLE      CLOUDY    30  28  93 S12       29.78S FOG     WCI  21
GRAND RAPIDS   CLOUDY    28  27  93 S16       29.80S WCI  17
CRANE LAKE     CLOUDY    28  27  93 SE6       29.84F WCI  22
ORR            CLOUDY    28  27  93 S13G18    29.78F WCI  18
COOK           CLOUDY    28  28 100 SE8       29.82F FOG     WCI  20
WALKER         CLOUDY    29  28  95 S8G17     29.76S FOG     WCI  21
$$
MNZ012-019>021-037-211700-
   Northeast Minnesota

CITY           SKY/WX    TMP DP  RH WIND       PRES   REMARKS
DULUTH         CLOUDY    31  28  89 SE13      29.85F FOG     WCI  21
ELY            CLOUDY    28  27  93 S14G21    29.84F FOG     WCI  17
HIBBING        CLOUDY    31  27  85 S8        29.82F WCI  23
EVELETH        CLOUDY    30  30 100 S10       29.85S FOG     WCI  21
DULUTH HARBOR  CLOUDY    34  30  86 CALM      29.92S
TWO HARBORS    CLOUDY    34  28  80 SE7       29.88F WCI  28
SILVER BAY     CLOUDY    32  28  86 SE7       29.89F FOG     WCI  26
GRAND MARAIS     N/A     34  28  79 S10       29.97S WCI  26
G MARAIS ARPRT CLOUDY    27  23  86 S9        29.91S FOG     WCI  17
$$
MNZ029>031-032-039>041-046>048-054>057-064-211700-
   West Central Minnesota

CITY           SKY/WX    TMP DP  RH WIND       PRES   REMARKS
FERGUS FALLS   CLOUDY    30  30 100 S14       29.77F FOG     WCI  20
WHEATON        CLOUDY    28  28 100 SE12      29.74F FOG     WCI  18
MORRIS         CLOUDY    32  30  93 SE15      29.72F FOG     WCI  22
ALEXANDRIA     FOG       30  30 100 S13       29.75F VSB 1/4 WCI  20
ELBOW LAKE     CLOUDY    30  30  99 SE14      29.73F FOG     WCI  19
WADENA         CLOUDY    28  28 100 S9        29.76S FOG     WCI  20
GLENWOOD       FOG       30  30 100 SE12      29.76F VSB 1/2 WCI  21
APPLETON       CLOUDY    34  30  86 SE8       29.75F FOG     WCI  27
BENSON         FOG       32  30  93 S9        29.75F VSB 1   WCI  24
ORTONVILLE     CLOUDY    32  28  86 SE12      29.72F FOG     WCI  23
MADISON          N/A     36  34  93 SE9       29.75F FOG
WILLMAR        FOG       34  32  93 SE8       29.79F VSB<1/4 WCI  27
$$
MNZ033>034-036-042>043-049>051-058-059-211700-
   Central Minnesota

CITY           SKY/WX    TMP DP  RH WIND       PRES   REMARKS
ST CLOUD       FOG       34  32  92 SE9       29.82F VSB 1/4 WCI  27
SAUK CENTRE    FOG       31  31 100 SE10      29.78F VSB 1/4 WCI  22
PAYNESVILLE    FOG       30  30 100 E7        29.80F VSB 1/4 WCI  23
AITKIN         CLOUDY    34  28  80 SE13G18   29.79F HAZE    WCI  25
PINE RIVER     CLOUDY    30  30 100 S13       29.82F FOG     WCI  20
BRAINERD       CLOUDY    31  30  96 S10       29.80S FOG     WCI  22
STAPLES        CLOUDY    28  28 100 S9        29.77F FOG     WCI  20
LONG PRAIRIE   FOG       30  30 100 SE15      29.77F VSB 1/2 WCI  19
LITTLE FALLS   FOG       32  30  93 SE8       29.80F VSB 3/4 WCI  25
LITCHFIELD     FOG       34  34 100 SE5       29.82F VSB 1/2 WCI  30
BUFFALO        CLOUDY    33  32  96 E3        29.85F FOG
MAPLE LAKE     FOG       34  33  99 SE6       29.84F VSB 1/2 WCI  29
$$
MNZ037-044-045-052-053-211700-
   East Central Minnesota

CITY           SKY/WX    TMP DP  RH WIND       PRES   REMARKS
PRINCETON      FOG       34  32  93 CALM      29.85F VSB 1/2
MORA           CLOUDY    32  30  93 SE7       29.87F VSB 3/4 WCI  26
CAMBRIDGE      LGT SNOW  34  28  80 SE6       29.85F VSB 3/4 WCI  29
RUSH CITY      CLOUDY    32  31  96 SE6       29.88F FOG     WCI  26
MOOSE LAKE     CLOUDY    32  30  93 S7        29.85S FOG     WCI  26
HINCKLEY       FOG       32  32 100 SE7       29.88S VSB 1   WCI  26
CLOQUET        CLOUDY    30  28  93 SE7       29.86F FOG     WCI  23
MCGREGOR       CLOUDY    32  32 100 S12G17    29.83F WCI  23
$$
MNZ071>073-080-081-089-090-097-098-211700-
   Southwest Minnesota

CITY           SKY/WX    TMP DP  RH WIND       PRES   REMARKS
MONTEVIDEO     CLOUDY    32  32 100 S9        29.77F FOG     WCI  24
GRANITE FALLS  FOG       32  32  99 E8        29.78F VSB 3/4 WCI  25
CANBY          CLOUDY    33  32  97 S7        29.75S FOG     WCI  26
MARSHALL       CLOUDY    34  30  86 S12       29.75F WCI  25
REDWOOD FALLS  FOG       34  33  96 SE14      29.78F VSB 1/4 WCI  25
OLIVIA         FOG       34  32  93 SE10      29.78F VSB 1/4 WCI  26
PIPESTONE      SNOW      34  32  93 S5        29.71F VSB<1/4 WCI  30
WINDOM         FOG       34  34 100 S6        29.79F VSB 1   WCI  29
WORTHINGTON    CLOUDY    34 -15  12 S13       29.77F VSB 3/4 WCI  25
JACKSON        CLOUDY    34  34 100 S12       29.81S FOG     WCI  25
TRACY          CLOUDY    34  33  97 S10       29.74F FOG     WCI  26
SLAYTON        FOG       32  32 100 S8        29.73F VSB 1/2 WCI  25
$$
MNZ065>067-074>077-082>085-091>093-211700-
   South Central Minnesota

CITY           SKY/WX    TMP DP  RH WIND       PRES   REMARKS
MANKATO        CLOUDY    36  32  87 S12G17    29.84F VSB 3/4
NEW ULM        FOG       34  34 100 S9        29.82S VSB 1/2 WCI  26
ST JAMES       CLOUDY    36  36 100 S10       29.83S FOG
FAIRMONT       CLOUDY    36  32  87 S17       29.82S
GLENCOE        FOG       35  35 100 SE9       29.83S VSB 1/4 WCI  28
FARIBAULT      DRZL/FOG  36  34  93 SE14      29.87F VSB 1
OWATONNA       FOG       36  34  93 S15       29.87F VSB 1/2
WASECA         FOG       34  32  93 S15       29.88R VSB 1/2 WCI  24
ALBERT LEA     FOG       36  36 100 S15G25    29.86S VSB 1/2
$$
MNZ078>079-086>088-094>096-211700-
   Southeast Minnesota

CITY           SKY/WX    TMP DP  RH WIND       PRES   REMARKS
ROCHESTER      FOG       34  33  96 S18       29.91F VSB 1/4 WCI  23
RED WING       MIX PCPN  36  34  93 SE8       29.91F
STANTON        LGT RAIN  36  33  91 S12       29.87F
DODGE CENTER   FOG       34  34 100 S16G23    29.87F VSB 3/4 WCI  23
WINONA         CLOUDY    36  34  93 SE7       29.97S FOG
AUSTIN         FOG       36  34  93 S13G18    29.89F VSB 1
PRESTON        FOG       33  33  99 S14       29.94R VSB 3/4 WCI  24
$$
ABBREVIATIONS USED IN REMARKS
   TC - TEMPERATURES IN CELSIUS
  WCI - WIND CHILL INDEX
   HX - HEAT INDEX
  VSB - VISIBILITY
$$


USA.gov is the U.S. government's official web portal to all federal, state and local government web resources and services.